Weather History for Olney-Noble, IL

Change the Weather History Date:

Tuesday, August 7, 2012

  Actual Average (KEVV) Record (KEVV)
Temperature  
Mean Temperature 80 °F 77 °F  
Max Temperature 100 °F 88 °F 102 °F (1930)
Min Temperature 59 °F 66 °F 50 °F (2004)
Degree Days  
Heating Degree Days 0 0  
Month to date heating degree days 0  
Since 1 June heating degree days 6  
Since 1 July heating degree days 0  
Cooling Degree Days 14 12  
Month to date cooling degree days 87  
Year to date cooling degree days 923  
Since 1 June cooling degree days 788  
Growing Degree Days 30 (Base 50)    
Moisture  
Dew Point 58 °F    
Average Humidity 56    
Maximum Humidity 100    
Minimum Humidity 20    
Precipitation  
Precipitation 0.00 in 0.09 in 2.10 in (1921)
Month to date precipitation 0.66  
Year to date precipitation 28.60  
Snow  
Snow 0.00 in 0.00 in 0.00 in (2002)
Month to date snowfall 0.0  
Since 1 June snowfall 0.0  
Since 1 July snowfall 0.0  
Snow Depth -    
Sea Level Pressure  
Sea Level Pressure 29.98 in    
Wind  
Wind Speed 1 mph (SE)    
Max Wind Speed 8 mph    
Max Gust Speed -    
Visibility 10 miles    
Events      
T = Trace of Precipitation, MM = Missing Value Source: NWS Daily Summary

Daily Weather History Graph

Daily Weather History Graph

Search for Another Location

Airport:

Trip Planner

Search our weather history database for the weather conditions in past years. The results will help you decide how hot, cold, wet, or windy it might be!

Date:

Astronomy

Aug. 07, 2012 Rise Set
Actual Time 5:59 AM CDT 7:56 PM CDT
Civil Twilight 5:30 AM CDT 8:25 PM CDT
Nautical Twilight 4:55 AM CDT 9:00 PM CDT
Astronomical Twilight 4:17 AM CDT 9:38 PM CDT
Moon 10:41 PM CDT (8/7) 11:42 AM CDT (8/7)
Length of Visible Light 14h 54m
Length of Day
13h 56m
Waning Gibbous, 69% of the Moon is Illuminated
Aug 7
Waning Gibbous
Aug 9
Last Quarter
Aug 17
New
Aug 24
First Quarter
Aug 31
Full

Hourly Weather History & Observations

Time (CDT) Temp. Heat Index Dew Point Humidity Pressure Visibility Wind Dir Wind Speed Gust Speed Precip Events Conditions
12:15 AM 66.2 °F - 59.0 °F 78% 30.01 in 10.0 mi Calm Calm - N/A   Clear
12:35 AM 66.2 °F - 59.0 °F 78% 30.00 in 10.0 mi Calm Calm - N/A   Clear
12:55 AM 64.4 °F - 59.0 °F 83% 30.00 in 10.0 mi Calm Calm - N/A   Clear
1:15 AM 64.4 °F - 60.8 °F 88% 30.00 in 10.0 mi Calm Calm - N/A   Clear
1:35 AM 64.4 °F - 59.0 °F 83% 30.00 in 10.0 mi Calm Calm - N/A   Clear
1:55 AM 64.4 °F - 59.0 °F 83% 30.00 in 10.0 mi Calm Calm - N/A   Clear
2:15 AM 62.6 °F - 59.0 °F 88% 30.00 in 10.0 mi Calm Calm - N/A   Clear
2:35 AM 62.6 °F - 59.0 °F 88% 29.99 in 10.0 mi Calm Calm - N/A   Clear
2:55 AM 62.6 °F - 59.0 °F 88% 29.99 in 10.0 mi Calm Calm - N/A   Clear
3:15 AM 62.6 °F - 60.8 °F 94% 29.99 in 10.0 mi Calm Calm - N/A   Clear
3:35 AM 60.8 °F - 60.8 °F 100% 29.99 in 10.0 mi Calm Calm - N/A   Clear
3:55 AM 60.8 °F - 60.8 °F 100% 29.99 in 10.0 mi Calm Calm - N/A   Clear
4:15 AM 60.8 °F - 60.8 °F 100% 30.00 in 10.0 mi Calm Calm - N/A   Clear
4:35 AM 60.8 °F - 60.8 °F 100% 30.00 in 10.0 mi Calm Calm - N/A   Clear
4:55 AM 60.8 °F - 60.8 °F 100% 30.00 in 10.0 mi Calm Calm - N/A   Clear
5:15 AM 60.8 °F - 60.8 °F 100% 30.00 in 10.0 mi Calm Calm - N/A   Clear
5:35 AM 60.8 °F - 60.8 °F 100% 30.00 in 10.0 mi Calm Calm - N/A   Clear
5:55 AM 59.0 °F - 59.0 °F 100% 30.01 in 10.0 mi Calm Calm - N/A   Clear
6:15 AM 60.8 °F - 60.8 °F 100% 30.01 in 10.0 mi NNW 3.5 mph - N/A   Clear
6:35 AM 62.6 °F - 60.8 °F 94% 30.01 in 10.0 mi Calm Calm - N/A   Clear
6:55 AM 64.4 °F - 60.8 °F 88% 30.01 in 10.0 mi Calm Calm - N/A   Clear
7:15 AM 66.2 °F - 60.8 °F 83% 30.02 in 10.0 mi Calm Calm - N/A   Clear
7:35 AM 69.8 °F - 60.8 °F 73% 30.02 in 10.0 mi Calm Calm - N/A   Clear
7:55 AM 73.4 °F - 60.8 °F 65% 30.02 in 10.0 mi Calm Calm - N/A   Clear
8:15 AM 75.2 °F - 62.6 °F 65% 30.02 in 10.0 mi Calm Calm - N/A   Clear
8:35 AM 78.8 °F - 62.6 °F 57% 30.02 in 10.0 mi Calm Calm - N/A   Clear
8:55 AM 80.6 °F 81.8 °F 62.6 °F 54% 30.02 in 10.0 mi Calm Calm - N/A   Clear
9:15 AM 84.2 °F 83.5 °F 57.2 °F 40% 30.02 in 10.0 mi Calm Calm - N/A   Clear
9:35 AM 87.8 °F 86.5 °F 57.2 °F 35% 30.02 in 10.0 mi Calm Calm - N/A   Clear
9:55 AM 89.6 °F 88.1 °F 57.2 °F 33% 30.02 in 10.0 mi Calm Calm - N/A   Clear
10:15 AM 89.6 °F 88.1 °F 57.2 °F 33% 30.02 in 10.0 mi WNW 3.5 mph - N/A   Clear
10:35 AM 91.4 °F 89.9 °F 57.2 °F 31% 30.02 in 10.0 mi WSW 3.5 mph - N/A   Clear
11:15 AM 93.2 °F 91.3 °F 55.4 °F 28% 30.02 in 10.0 mi West 5.8 mph - N/A   Clear
11:35 AM 93.2 °F 91.3 °F 55.4 °F 28% 30.02 in 10.0 mi NW 4.6 mph - N/A   Clear
11:55 AM 93.2 °F 90.8 °F 53.6 °F 26% 30.01 in 10.0 mi Calm Calm - N/A   Clear
12:15 PM 96.8 °F 94.4 °F 53.6 °F 23% 30.01 in 10.0 mi South 3.5 mph - N/A   Clear
12:35 PM 96.8 °F 94.4 °F 53.6 °F 23% 30.00 in 10.0 mi Calm Calm - N/A   Clear
12:55 PM 98.6 °F - 51.8 °F 21% 29.99 in 10.0 mi SW 3.5 mph - N/A   Clear
1:15 PM 98.6 °F 97.2 °F 55.4 °F 24% 29.99 in 10.0 mi NW 4.6 mph - N/A   Clear
1:35 PM 98.6 °F - 51.8 °F 21% 29.98 in 10.0 mi SSW 5.8 mph - N/A   Clear
1:55 PM 98.6 °F 96.4 °F 53.6 °F 22% 29.97 in 10.0 mi West 5.8 mph - N/A   Clear
2:15 PM 98.6 °F 96.4 °F 53.6 °F 22% 29.97 in 10.0 mi West 5.8 mph - N/A   Clear
2:35 PM 98.6 °F - 51.8 °F 21% 29.96 in 10.0 mi South 3.5 mph - N/A   Clear
2:55 PM 98.6 °F - 51.8 °F 21% 29.95 in 10.0 mi Calm Calm - N/A   Clear
3:15 PM 100.4 °F - 51.8 °F 20% 29.95 in 10.0 mi East 3.5 mph - N/A   Clear
3:35 PM 98.6 °F - 51.8 °F 21% 29.95 in 10.0 mi North 3.5 mph - N/A   Clear
3:55 PM 100.4 °F 98.4 °F 53.6 °F 21% 29.94 in 10.0 mi Calm Calm - N/A   Clear
4:15 PM 100.4 °F 98.4 °F 53.6 °F 21% 29.94 in 10.0 mi ENE 3.5 mph - N/A   Clear
4:35 PM 98.6 °F 96.4 °F 53.6 °F 22% 29.94 in 10.0 mi NE 3.5 mph - N/A   Clear
4:55 PM 98.6 °F 96.4 °F 53.6 °F 22% 29.93 in 10.0 mi East 4.6 mph - N/A   Clear
5:15 PM 98.6 °F - 51.8 °F 21% 29.93 in 10.0 mi East 4.6 mph - N/A   Clear
5:35 PM 98.6 °F 96.4 °F 53.6 °F 22% 29.93 in 10.0 mi NE 5.8 mph - N/A   Clear
5:55 PM 96.8 °F 94.4 °F 53.6 °F 23% 29.93 in 10.0 mi East 5.8 mph - N/A   Clear
6:15 PM 96.8 °F 94.4 °F 53.6 °F 23% 29.93 in 10.0 mi ESE 8.1 mph - N/A   Clear
6:35 PM 93.2 °F 90.8 °F 53.6 °F 26% 29.93 in 10.0 mi SE 5.8 mph - N/A   Clear
6:55 PM 93.2 °F 91.3 °F 55.4 °F 28% 29.93 in 10.0 mi SSE 5.8 mph - N/A   Clear
7:15 PM 91.4 °F 89.4 °F 55.4 °F 29% 29.94 in 10.0 mi SSE 4.6 mph - N/A   Clear
7:35 PM 87.8 °F 86.5 °F 57.2 °F 35% 29.94 in 10.0 mi Calm Calm - N/A   Clear
7:55 PM 82.4 °F 82.9 °F 60.8 °F 48% 29.95 in 10.0 mi Calm Calm - N/A   Clear
8:15 PM 80.6 °F 81.5 °F 60.8 °F 51% 29.95 in 10.0 mi Calm Calm - N/A   Clear
8:35 PM 78.8 °F - 60.8 °F 54% 29.96 in 10.0 mi Calm Calm - N/A   Clear
8:55 PM 77.0 °F - 62.6 °F 61% 29.96 in 10.0 mi Calm Calm - N/A   Clear
9:15 PM 75.2 °F - 62.6 °F 65% 29.97 in 10.0 mi Calm Calm - N/A   Clear
9:55 PM 73.4 °F - 64.4 °F 73% 29.97 in 10.0 mi Calm Calm - N/A   Clear
10:15 PM 73.4 °F - 64.4 °F 73% 29.97 in 10.0 mi Calm Calm - N/A   Clear
10:35 PM 71.6 °F - 64.4 °F 78% 29.97 in 10.0 mi Calm Calm - N/A   Clear
10:55 PM 71.6 °F - 64.4 °F 78% 29.97 in 10.0 mi Calm Calm - N/A   Clear
11:15 PM 71.6 °F - 64.4 °F 78% 29.97 in 10.0 mi Calm Calm - N/A   Clear
11:35 PM 71.6 °F - 62.6 °F 73% 29.97 in 10.0 mi Calm Calm - N/A   Clear
11:55 PM 73.4 °F - 62.6 °F 69% 29.97 in 10.0 mi Calm Calm - N/A   Clear